When you browse on this site, cookies collect data to enhance your experience and personalize the content and advertising you see.
Visit our Privacy Policy to learn more. By continuing to use the site, you agree to this use of cookies and data.
  • In Romania
  • List of Countries
  • For 7 days
  • Water Temperature
  • Satellite Maps
  • Weather Map
  • Weather Widgets
  • user-avatar
    Login

    Hourly Weather Apanasenko

    Today, 26 April, Friday

    Time Temperature Precipitation Wind Pressure Humidity
    00:00 +13°C° 0 mm 1 mps 741 mmHg 64%
    01:00 +12°C° 0 mm 1 mps 741 mmHg 65%
    02:00 +12°C° 0 mm 1 mps 741 mmHg 66%
    03:00 +10°C° 0 mm 2 mps 741 mmHg 68%
    04:00 +10°C° 0 mm 2 mps 741 mmHg 69%
    05:00 +10°C° 0 mm 2 mps 741 mmHg 70%
    06:00 +10°C° 0 mm 2 mps 741 mmHg 72%
    07:00 +13°C° 0 mm 2 mps 740 mmHg 66%
    08:00 +16°C° 0 mm 1 mps 740 mmHg 59%
    09:00 +19°C° 0 mm 1 mps 740 mmHg 53%
    10:00 +20°C° 0 mm 1 mps 740 mmHg 49%
    11:00 +21°C° 0 mm 1 mps 740 mmHg 45%
    12:00 +22°C° 0 mm 1 mps 739 mmHg 41%
    13:00 +23°C° 0 mm 2 mps 739 mmHg 40%
    14:00 +23°C° 0 mm 2 mps 739 mmHg 39%
    15:00 +23°C° 0 mm 2 mps 739 mmHg 38%
    16:00 +21°C° 0 mm 2 mps 738 mmHg 42%
    17:00 +21°C° 0 mm 2 mps 738 mmHg 47%
    18:00 +20°C° 0 mm 2 mps 738 mmHg 52%
    19:00 +18°C° 0 mm 2 mps 738 mmHg 54%
    20:00 +17°C° 0 mm 2 mps 738 mmHg 57%
    21:00 +15°C° 0 mm 2 mps 738 mmHg 60%
    22:00 +15°C° 0 mm 1 mps 738 mmHg 62%
    23:00 +14°C° 0 mm 1 mps 738 mmHg 64%

    Tomorrow, 27 April, Saturday

    Time Temperature Precipitation Wind Pressure Humidity
    00:00 +13°C° 0 mm 1 mps 738 mmHg 66%
    01:00 +13°C° 0 mm 1 mps 738 mmHg 67%
    02:00 +12°C° 0 mm 1 mps 738 mmHg 68%
    03:00 +11°C° 0 mm 0 mps 738 mmHg 68%
    04:00 +11°C° 0 mm 0 mps 738 mmHg 69%
    05:00 +11°C° 0 mm 0 mps 737 mmHg 70%
    06:00 +11°C° 0 mm 0 mps 737 mmHg 70%
    07:00 +15°C° 0 mm 1 mps 737 mmHg 64%
    08:00 +18°C° 0 mm 1 mps 737 mmHg 57%
    09:00 +19°C° 0 mm 2 mps 737 mmHg 50%
    10:00 +20°C° 0 mm 3 mps 737 mmHg 46%
    11:00 +21°C° 0 mm 3 mps 737 mmHg 42%
    12:00 +22°C° 0 mm 4 mps 736 mmHg 38%
    13:00 +22°C° 0 mm 4 mps 736 mmHg 38%
    14:00 +23°C° 0 mm 4 mps 736 mmHg 38%
    15:00 +23°C° 0 mm 4 mps 735 mmHg 37%
    16:00 +22°C° 0 mm 3 mps 735 mmHg 42%
    17:00 +21°C° 0 mm 3 mps 735 mmHg 46%
    18:00 +20°C° 0 mm 2 mps 735 mmHg 51%
    19:00 +19°C° 0 mm 2 mps 735 mmHg 52%
    20:00 +19°C° 0 mm 1 mps 735 mmHg 52%
    21:00 +15°C° 0 mm 0 mps 735 mmHg 53%
    22:00 +16°C° 0 mm 1 mps 735 mmHg 56%
    23:00 +15°C° 0 mm 1 mps 735 mmHg 58%

    Day after tomorrow, 28 April, Sunday

    Time Temperature Precipitation Wind Pressure Humidity
    00:00 +15°C° 0 mm 1 mps 735 mmHg 60%
    01:00 +14°C° 0 mm 1 mps 734 mmHg 62%
    02:00 +14°C° 0 mm 1 mps 734 mmHg 65%
    03:00 +12°C° 0 mm 0 mps 734 mmHg 67%
    04:00 +13°C° 0 mm 1 mps 734 mmHg 69%
    05:00 +13°C° 0 mm 1 mps 734 mmHg 70%
    06:00 +13°C° 0 mm 1 mps 734 mmHg 72%
    07:00 +15°C° 0 mm 2 mps 734 mmHg 66%
    08:00 +17°C° 0 mm 2 mps 734 mmHg 59%
    09:00 +19°C° 0 mm 2 mps 734 mmHg 53%
    10:00 +20°C° 0 mm 2 mps 734 mmHg 48%
    11:00 +23°C° 0 mm 1 mps 734 mmHg 44%
    12:00 +24°C° 0 mm 1 mps 733 mmHg 39%
    13:00 +24°C° 0 mm 1 mps 733 mmHg 37%
    14:00 +24°C° 0 mm 2 mps 733 mmHg 36%
    15:00 +25°C° 0 mm 2 mps 732 mmHg 34%
    16:00 +24°C° 0 mm 1 mps 732 mmHg 39%
    17:00 +24°C° 0 mm 1 mps 732 mmHg 43%
    18:00 +23°C° 0 mm 1 mps 732 mmHg 47%
    19:00 +22°C° 0 mm 1 mps 733 mmHg 49%
    20:00 +20°C° 0 mm 1 mps 733 mmHg 51%
    21:00 +19°C° 0 mm 1 mps 733 mmHg 53%
    22:00 +18°C° 0 mm 1 mps 733 mmHg 55%
    23:00 +18°C° 0 mm 1 mps 733 mmHg 57%

    29 April, Monday

    Time Temperature Precipitation Wind Pressure Humidity
    00:00 +17°C° 0 mm 2 mps 733 mmHg 60%
    01:00 +16°C° 0 mm 2 mps 733 mmHg 63%
    02:00 +15°C° 0 mm 2 mps 732 mmHg 67%
    03:00 +14°C° 0 mm 2 mps 732 mmHg 70%
    04:00 +14°C° 0 mm 2 mps 732 mmHg 72%
    05:00 +14°C° 0 mm 2 mps 733 mmHg 73%
    06:00 +14°C° 0 mm 2 mps 733 mmHg 74%
    07:00 +16°C° 0 mm 2 mps 733 mmHg 67%
    08:00 +18°C° 0 mm 2 mps 733 mmHg 61%
    09:00 +20°C° 0 mm 2 mps 733 mmHg 54%
    10:00 +23°C° 0 mm 2 mps 733 mmHg 49%
    11:00 +24°C° 0 mm 1 mps 733 mmHg 44%
    12:00 +25°C° 0 mm 1 mps 732 mmHg 39%
    13:00 +25°C° 0 mm 1 mps 732 mmHg 38%
    14:00 +25°C° 0 mm 2 mps 732 mmHg 37%
    15:00 +26°C° 0 mm 2 mps 732 mmHg 37%
    16:00 +24°C° 0 mm 2 mps 732 mmHg 42%
    17:00 +23°C° 0 mm 2 mps 732 mmHg 48%
    18:00 +21°C° 0 mm 2 mps 732 mmHg 54%
    19:00 +20°C° 0.3 mm 2 mps 732 mmHg 58%
    20:00 +20°C° 0.3 mm 1 mps 733 mmHg 62%
    21:00 +19°C° 0.3 mm 1 mps 733 mmHg 66%
    22:00 +18°C° 0.1 mm 1 mps 733 mmHg 70%
    23:00 +16°C° 0.1 mm 2 mps 733 mmHg 75%

    30 April, Tuesday

    Time Temperature Precipitation Wind Pressure Humidity
    00:00 +15°C° 0.1 mm 2 mps 733 mmHg 79%
    01:00 +14°C° 0 mm 2 mps 732 mmHg 83%
    02:00 +14°C° 0 mm 2 mps 732 mmHg 87%
    03:00 +13°C° 0 mm 2 mps 732 mmHg 90%
    04:00 +12°C° 0.8 mm 3 mps 732 mmHg 91%
    05:00 +12°C° 0.8 mm 3 mps 733 mmHg 92%
    06:00 +12°C° 0.8 mm 3 mps 733 mmHg 94%
    07:00 +12°C° 0.5 mm 3 mps 733 mmHg 92%
    08:00 +13°C° 0.5 mm 3 mps 733 mmHg 90%
    09:00 +13°C° 0.5 mm 3 mps 733 mmHg 89%
    10:00 +13°C° 0 mm 3 mps 733 mmHg 86%
    11:00 +14°C° 0 mm 4 mps 733 mmHg 84%
    12:00 +14°C° 0 mm 4 mps 733 mmHg 82%
    13:00 +15°C° 0 mm 4 mps 733 mmHg 78%
    14:00 +17°C° 0 mm 4 mps 733 mmHg 74%
    15:00 +18°C° 0 mm 4 mps 733 mmHg 70%
    16:00 +18°C° 0 mm 4 mps 733 mmHg 73%
    17:00 +17°C° 0 mm 4 mps 733 mmHg 76%
    18:00 +15°C° 0 mm 4 mps 733 mmHg 79%
    19:00 +14°C° 0 mm 4 mps 733 mmHg 83%
    20:00 +13°C° 0 mm 3 mps 733 mmHg 87%
    21:00 +12°C° 0 mm 3 mps 733 mmHg 90%
    22:00 +11°C° 0 mm 3 mps 733 mmHg 92%
    23:00 +12°C° 0 mm 2 mps 732 mmHg 93%

    1 May, Wednesday

    Time Temperature Precipitation Wind Pressure Humidity
    00:00 +10°C° 0 mm 2 mps 732 mmHg 94%
    01:00 +10°C° 0 mm 2 mps 732 mmHg 95%
    02:00 +9°C° 0 mm 2 mps 732 mmHg 95%
    03:00 +10°C° 0 mm 1 mps 731 mmHg 95%
    04:00 +10°C° 0 mm 1 mps 731 mmHg 94%
    05:00 +11°C° 0 mm 1 mps 731 mmHg 94%
    06:00 +11°C° 0 mm 1 mps 731 mmHg 93%
    07:00 +13°C° 0 mm 1 mps 731 mmHg 86%
    08:00 +15°C° 0 mm 1 mps 731 mmHg 79%
    09:00 +17°C° 0 mm 2 mps 731 mmHg 72%
    10:00 +18°C° 0 mm 2 mps 731 mmHg 68%
    11:00 +20°C° 0 mm 3 mps 730 mmHg 63%
    12:00 +22°C° 0 mm 4 mps 730 mmHg 59%
    13:00 +22°C° 0 mm 4 mps 730 mmHg 58%
    14:00 +22°C° 0 mm 4 mps 730 mmHg 57%
    15:00 +22°C° 0 mm 5 mps 730 mmHg 57%
    16:00 +21°C° 0 mm 4 mps 730 mmHg 61%
    17:00 +20°C° 0 mm 4 mps 730 mmHg 65%
    18:00 +19°C° 0 mm 4 mps 730 mmHg 70%
    19:00 +18°C° 0 mm 3 mps 730 mmHg 73%
    20:00 +17°C° 0 mm 3 mps 730 mmHg 76%
    21:00 +14°C° 0 mm 3 mps 729 mmHg 79%
    22:00 +14°C° 0 mm 3 mps 729 mmHg 81%
    23:00 +13°C° 0 mm 3 mps 729 mmHg 83%
    Show more